"2004/01/01",  4.3,  5.2,  3.3
"2004/01/02",  4.7,  5.7,  3.8
"2004/01/03",  5.1,  6.3,  4.2
"2004/01/04",  4.5,  5.2,  3.6
"2004/01/05",  3.9,  4.7,  3.1
"2004/01/06",  3.8,  4.9,  2.7
"2004/01/07",  3.8,  4.8,  2.9
"2004/01/08",  3.4,  4.0,  2.9
"2004/01/09",  2.6,  3.7,  1.5
"2004/01/10",  2.4,  3.7,  1.2
"2004/01/11",  2.5,  3.3,  1.7
"2004/01/12",  2.1,  3.1,  1.0
"2004/01/13",  3.3,  4.2,  2.9
"2004/01/14",  2.5,  3.2,  1.9
"2004/01/15",  1.8,  2.6,  1.0
"2004/01/16",  1.7,  2.8,  0.7
"2004/01/17",  1.9,  2.5,  1.3
"2004/01/18",  2.9,  4.3,  2.0
"2004/01/19",  2.9,  3.5,  2.6
"2004/01/20",  2.7,  4.2,  1.5
"2004/01/21",  3.3,  4.1,  2.5
"2004/01/22",  2.9,  3.7,  2.1
"2004/01/23",  2.1,  3.1,  1.2
"2004/01/24",  1.7,  2.4,  1.0
"2004/01/25",  2.0,  3.3,  0.9
"2004/01/26",  2.0,  3.3,  0.8
"2004/01/27",  2.2,  3.2,  1.3
"2004/01/28",  2.1,  3.3,  0.9
"2004/01/29",  2.5,  3.9,  1.3
"2004/01/30",  3.2,  4.8,  2.0
"2004/01/31",  3.4,  4.7,  2.1
"2004/02/01",  2.7,  4.0,  1.3
"2004/02/02",  3.3,  3.7,  3.0
"2004/02/03",  3.8,  4.6,  3.0
"2004/02/04",  4.2,  5.4,  3.1
"2004/02/05",  3.6,  4.7,  2.5
"2004/02/06",  3.1,  4.5,  2.0
"2004/02/07",  3.0,  4.1,  1.9
"2004/02/08",  2.9,  4.3,  1.5
"2004/02/09",  3.1,  4.4,  1.8
"2004/02/10",  3.4,  4.7,  2.2
"2004/02/11",  3.2,  4.5,  1.9
"2004/02/12",  3.5,  5.0,  2.0
"2004/02/13",  4.0,  5.3,  2.6
"2004/02/14",  5.1,  6.4,  4.0
"2004/02/15",  5.4,  6.2,  4.6
"2004/02/16",  4.8,  6.3,  3.5
"2004/02/17",  5.0,  6.4,  3.7
"2004/02/18",  5.0,  6.2,  3.9
"2004/02/19",  4.9,  6.5,  3.3
"2004/02/20",  5.7,  6.6,  5.1
"2004/02/21",  6.2,  7.7,  4.7
"2004/02/22",  7.1,  8.9,  5.5
"2004/02/23",  8.5,  9.1,  7.0
"2004/02/24",  6.6,  7.9,  5.0
"2004/02/25",  7.1,  8.5,  6.0
"2004/02/26",  7.2,  8.8,  5.7
"2004/02/27",  6.8,  8.0,  5.5
"2004/02/28",  6.6,  8.1,  5.2
"2004/02/29",  6.5,  7.5,  5.7
"2004/03/01",  5.7,  6.7,  4.5
"2004/03/02",  4.4,  5.4,  3.4
"2004/03/03",  4.6,  5.8,  3.4
"2004/03/04",  5.7,  7.6,  4.5
"2004/03/05",  5.5,  6.8,  3.9
"2004/03/06",  6.1,  7.5,  5.0
"2004/03/07",  5.7,  7.0,  4.2
"2004/03/08",  5.2,  6.8,  3.6
"2004/03/09",  6.0,  8.1,  4.4
"2004/03/10",  6.7,  8.5,  5.1
"2004/03/11",  9.0, 10.4,  7.9
"2004/03/12",  8.4,  9.5,  7.3
"2004/03/13",  7.6,  9.3,  6.0
"2004/03/14",  7.9,  9.4,  6.4
"2004/03/15",  8.6, 10.5,  7.2
"2004/03/16",  9.0, 10.7,  7.5
"2004/03/17",  9.5, 11.1,  7.8
"2004/03/18", 10.1, 10.9,  8.4
"2004/03/19",  8.6, 10.3,  7.2
"2004/03/20",  7.1,  8.4,  6.0
"2004/03/21",  7.0,  9.1,  5.4
"2004/03/22",  6.8,  7.6,  6.2
"2004/03/23",  6.2,  6.8,  5.8
"2004/03/24",  6.5,  7.7,  5.3
"2004/03/25",  7.3,  8.1,  6.5
"2004/03/26",  8.0,  9.5,  7.1
"2004/03/27",  8.0, 10.3,  5.9
"2004/03/28",  9.0, 11.1,  7.2
"2004/03/29",  9.6, 11.4,  8.0
"2004/03/30", 10.4, 11.0,  9.6
"2004/03/31", 11.9, 13.3, 10.7
"2004/04/01", 11.9, 13.9, 10.1
"2004/04/02", 11.9, 12.6, 11.3
"2004/04/03", 11.5, 13.6,  9.6
"2004/04/04",  9.9, 11.8,  8.1
"2004/04/05",  9.4, 11.8,  7.6
"2004/04/06", 10.4, 12.5,  8.5
"2004/04/07", 11.9, 14.1,  9.8
"2004/04/08", 12.2, 13.6, 10.9
"2004/04/09", 11.9, 14.0, 10.0
"2004/04/10", 12.6, 14.6, 10.7
"2004/04/11", 13.2, 15.0, 11.6
"2004/04/12", 13.8, 16.1, 11.7
"2004/04/13", 13.2, 14.7, 12.3
"2004/04/14", 12.6, 13.6, 11.5
"2004/04/15", 13.4, 15.4, 11.7
"2004/04/16", 13.8, 15.6, 12.1
"2004/04/17", 14.5, 16.4, 12.9
"2004/04/18", 14.9, 16.9, 13.1
"2004/04/19", 14.6, 15.3, 14.1
"2004/04/20", 16.1, 18.4, 14.5
"2004/04/21", 15.8, 17.4, 14.0
"2004/04/22", 16.4, 18.3, 14.6
"2004/04/23", 15.7, 17.0, 14.5
"2004/04/24", 14.6, 16.3, 13.0
"2004/04/25", 13.8, 15.8, 12.0
"2004/04/26", 14.2, 15.7, 12.6
"2004/04/27", 14.2, 14.8, 13.8
"2004/04/28", 14.3, 14.8, 13.4
"2004/04/29", 14.5, 17.1, 12.4
"2004/04/30", 15.0, 17.0, 13.0
"2004/05/01", 15.9, 17.5, 14.7
"2004/05/02", 15.1, 16.4, 14.0
"2004/05/03", 14.5, 15.0, 14.0
"2004/05/04", 15.4, 16.6, 14.5
"2004/05/05", 14.8, 16.4, 13.6
"2004/05/06", 13.9, 15.2, 12.8
"2004/05/07", 15.5, 18.3, 13.2
"2004/05/08", 16.1, 17.5, 14.8
"2004/05/09", 15.8, 16.3, 15.2
"2004/05/10", 15.7, 16.4, 15.0
"2004/05/11", 18.0, 20.9, 15.7
"2004/05/12", 18.4, 19.5, 17.5
"2004/05/13", 17.7, 18.4, 16.8
"2004/05/14", 18.8, 20.4, 17.8
"2004/05/15", 18.3, 20.2, 16.5
"2004/05/16", 17.5, 18.6, 17.1
"2004/05/17", 17.6, 18.4, 16.9
"2004/05/18", 17.8, 18.4, 17.2
"2004/05/19", 17.0, 17.6, 16.4
"2004/05/20", 15.9, 16.5, 15.3
"2004/05/21", 15.5, 17.5, 13.8
"2004/05/22", 14.9, 16.2, 14.2
"2004/05/23", 14.0, 14.2, 13.6
"2004/05/24", 15.6, 18.2, 13.4
"2004/05/25", 17.3, 19.5, 15.2
"2004/05/26", 18.1, 19.9, 16.3
"2004/05/27", 18.3, 19.0, 17.5
"2004/05/28", 18.7, 20.1, 17.4
"2004/05/29", 19.4, 21.2, 17.8
"2004/05/30", 21.1, 23.4, 19.0
"2004/05/31", 22.0, 23.1, 21.2
"2004/06/01", 19.4, 21.4, 18.1
"2004/06/02", 18.8, 20.7, 17.1
"2004/06/03", 19.0, 20.5, 17.7
"2004/06/04", 19.1, 21.4, 17.0
"2004/06/05", 19.9, 21.9, 17.9
"2004/06/06", 20.1, 20.7, 19.3
"2004/06/07", 19.8, 21.0, 18.8
"2004/06/08", 19.7, 20.5, 18.3
"2004/06/09", 18.0, 18.5, 17.5
"2004/06/10", 18.6, 20.0, 17.4
"2004/06/11", 19.0, 19.5, 18.2
"2004/06/12", 18.7, 20.0, 17.4
"2004/06/13", 19.1, 20.1, 18.4
"2004/06/14", 19.7, 21.9, 17.7
"2004/06/15", 20.7, 22.9, 18.7
"2004/06/16", 20.9, 22.5, 19.5
"2004/06/17", 20.5, 21.9, 19.2
"2004/06/18", 21.3, 22.7, 20.0
"2004/06/19", 22.0, 23.3, 20.8
"2004/06/20", 22.6, 23.6, 21.7
"2004/06/21", 23.1, 23.7, 22.5
"2004/06/22", 23.3, 24.8, 22.1
"2004/06/23", 24.2, 26.2, 22.5
"2004/06/24", 24.8, 26.8, 23.1
"2004/06/25", 24.1, 25.0, 23.3
"2004/06/26", 22.8, 23.9, 21.9
"2004/06/27", 22.6, 24.0, 21.2
"2004/06/28", 22.9, 24.5, 21.7
"2004/06/29", 24.1, 26.2, 22.3
"2004/06/30", 23.9, 24.6, 23.5
"2004/07/01", 23.6, 24.9, 22.7
"2004/07/02", 22.9, 24.8, 21.3
"2004/07/03", 23.1, 25.1, 21.2
"2004/07/04", 23.7, 25.8, 21.6
"2004/07/05", 24.2, 25.0, 23.4
"2004/07/06", 24.9, 26.6, 23.7
"2004/07/07", 26.1, 28.5, 24.0
"2004/07/08", 26.6, 28.4, 25.0
"2004/07/09", 27.1, 29.1, 25.2
"2004/07/10", 27.4, 29.0, 26.0
"2004/07/11", 27.0, 28.3, 25.8
"2004/07/12", 26.1, 27.3, 24.9
"2004/07/13", 26.4, 28.5, 24.8
"2004/07/14", 26.3, 28.1, 24.8
"2004/07/15", 26.7, 28.6, 25.1
"2004/07/16", 26.4, 27.9, 25.3
"2004/07/17", 26.3, 28.4, 24.6
"2004/07/18", 26.8, 28.8, 25.0
"2004/07/19", 26.9, 28.4, 25.6
"2004/07/20", 27.6, 30.0, 25.6
"2004/07/21", 28.1, 29.4, 26.7
"2004/07/22", 27.7, 29.1, 26.4
"2004/07/23", 27.6, 29.2, 26.2
"2004/07/24", 28.0, 29.8, 26.4
"2004/07/25", 28.5, 30.4, 27.0
"2004/07/26", 28.5, 29.6, 27.2
"2004/07/27", 28.7, 30.7, 27.0
"2004/07/28", 28.7, 30.2, 27.4
"2004/07/29", 27.2, 28.6, 26.1
"2004/07/30", 26.7, 27.7, 25.9
"2004/07/31", 26.9, 28.3, 25.9
"2004/08/01", 27.0, 28.5, 25.6
"2004/08/02", 26.8, 28.1, 25.6
"2004/08/03", 26.7, 27.8, 25.6
"2004/08/04", 26.8, 28.1, 25.7
"2004/08/05", 27.0, 28.1, 25.9
"2004/08/06", 27.4, 29.2, 26.0
"2004/08/07", 27.8, 29.3, 26.6
"2004/08/08", 27.5, 29.0, 26.4
"2004/08/09", 27.6, 29.4, 26.1
"2004/08/10", 28.2, 30.1, 26.6
"2004/08/11", 28.1, 29.3, 27.1
"2004/08/12", 28.0, 29.9, 26.3
"2004/08/13", 28.4, 30.4, 26.5
"2004/08/14", 28.4, 30.1, 26.7
"2004/08/15", 25.2, 28.6, 23.3
"2004/08/16", 24.1, 26.2, 22.2
"2004/08/17", 24.8, 25.6, 24.1
"2004/08/18", 25.5, 27.1, 24.1
"2004/08/19", 26.3, 27.8, 25.1
"2004/08/20", 26.8, 28.3, 25.7
"2004/08/21", 26.3, 27.8, 25.1
"2004/08/22", 25.9, 26.8, 25.1
"2004/08/23", 24.4, 25.3, 23.5
"2004/08/24", 24.0, 25.4, 22.8
"2004/08/25", 24.7, 25.8, 23.8
"2004/08/26", 24.5, 25.7, 23.4
"2004/08/27", 24.4, 25.4, 23.6
"2004/08/28", 23.1, 24.0, 22.6
"2004/08/29", 21.9, 22.6, 21.2
"2004/08/30", 22.6, 24.4, 21.2
"2004/08/31", 24.1, 25.2, 23.3
"2004/09/01", 25.0, 26.8, 23.3
"2004/09/02", 25.4, 26.6, 24.4
"2004/09/03", 25.0, 26.2, 24.0
"2004/09/04", 24.1, 24.8, 22.6
"2004/09/05", 22.5, 22.9, 22.0
"2004/09/06", 23.5, 24.9, 22.4
"2004/09/07", 24.4, 25.5, 23.4
"2004/09/08", 24.7, 25.7, 23.9
"2004/09/09", 24.6, 25.9, 23.5
"2004/09/10", 23.8, 24.8, 22.9
"2004/09/11", 23.4, 24.6, 22.5
"2004/09/12", 23.2, 24.9, 21.8
"2004/09/13", 23.7, 25.0, 22.6
"2004/09/14", 24.3, 25.7, 23.1
"2004/09/15", 23.5, 24.5, 22.7
"2004/09/16", 22.7, 24.2, 21.4
"2004/09/17", 22.8, 24.1, 21.5
"2004/09/18", 23.2, 24.1, 22.4
"2004/09/19", 23.3, 24.3, 22.3
"2004/09/20", 23.6, 24.4, 22.7
"2004/09/21", 23.9, 25.0, 22.9
"2004/09/22", 24.1, 25.0, 23.5
"2004/09/23", 23.3, 24.0, 22.7
"2004/09/24", 22.6, 23.2, 22.0
"2004/09/25", 22.4, 23.0, 21.8
"2004/09/26", 21.4, 22.4, 20.6
"2004/09/27", 20.0, 20.6, 19.5
"2004/09/28", 20.1, 21.1, 19.4
"2004/09/29", 20.1, 20.4, 19.8
"2004/09/30", 20.9, 22.1, 19.9
"2004/10/01", 20.5, 21.9, 19.1
"2004/10/02", 20.3, 21.9, 18.7
"2004/10/03", 19.4, 20.9, 17.8
"2004/10/04", 17.8, 17.9, 17.6
"2004/10/05", 17.1, 17.7, 16.7
"2004/10/06", 17.7, 19.2, 16.5
"2004/10/07", 17.8, 19.4, 16.3
"2004/10/08", 17.1, 17.7, 16.7
"2004/10/09", 16.0, 16.8, 15.6
"2004/10/10", 16.3, 17.0, 15.8
"2004/10/11", 16.8, 17.4, 16.3
"2004/10/12", 17.5, 18.4, 16.7
"2004/10/13", 17.6, 17.9, 17.1
"2004/10/14", 16.5, 17.1, 16.1
"2004/10/15", 16.4, 17.8, 15.1
"2004/10/16", 15.7, 16.3, 15.1
"2004/10/17", 15.2, 16.4, 14.3
"2004/10/18", 15.1, 16.6, 13.6
"2004/10/19", 15.4, 15.7, 15.1
"2004/10/20", 15.5, 16.1, 15.1
"2004/10/21", 16.3, 17.0, 15.3
"2004/10/22", 15.5, 17.0, 14.3
"2004/10/23", 15.8, 17.0, 14.8
"2004/10/24", 15.2, 16.2, 14.1
"2004/10/25", 15.4, 16.3, 14.9
"2004/10/26", 15.0, 15.4, 14.2
"2004/10/27", 13.7, 14.2, 13.0
"2004/10/28", 13.0, 14.3, 11.9
"2004/10/29", 12.7, 14.2, 11.4
"2004/10/30", 13.1, 13.5, 12.7
"2004/10/31", 14.3, 15.4, 13.4
"2004/11/01", 15.2, 15.7, 14.8
"2004/11/02", 15.7, 16.9, 14.9
"2004/11/03", 16.0, 17.2, 15.0
"2004/11/04", 15.4, 16.5, 14.3
"2004/11/05", 14.9, 16.0, 13.8
"2004/11/06", 15.2, 16.5, 14.3
"2004/11/07", 15.0, 16.1, 13.9
"2004/11/08", 14.9, 16.0, 14.1
"2004/11/09", 14.6, 15.8, 13.5
"2004/11/10", 14.3, 15.4, 13.2
"2004/11/11", 14.8, 15.6, 13.9
"2004/11/12", 15.7, 16.1, 15.4
"2004/11/13", 14.7, 15.5, 13.9
"2004/11/14", 13.5, 14.2, 13.2
"2004/11/15", 12.7, 13.2, 12.4
"2004/11/16", 12.5, 13.4, 11.8
"2004/11/17", 11.8, 13.0, 10.8
"2004/11/18", 11.9, 12.2, 11.5
"2004/11/19", 12.0, 12.3, 11.8
"2004/11/20", 12.6, 13.8, 11.6
"2004/11/21", 12.5, 13.6, 11.4
"2004/11/22", 12.3, 13.5, 11.2
"2004/11/23", 11.5, 12.8, 10.2
"2004/11/24", 11.4, 12.7, 10.3
"2004/11/25", 10.9, 12.2,  9.8
"2004/11/26", 10.4, 11.3,  9.3
"2004/11/27", 11.4, 12.2, 10.6
"2004/11/28", 10.3, 11.4,  9.0
"2004/11/29", 10.0, 10.8,  9.3
"2004/11/30",  9.4, 10.1,  8.8
"2004/12/01",  8.6,  9.8,  7.4
"2004/12/02",  8.4,  9.7,  7.2
"2004/12/03",  8.1,  9.3,  6.7
"2004/12/04",  8.2,  9.1,  7.1
"2004/12/05", 11.3, 13.0,  9.0
"2004/12/06",  9.5, 10.8,  8.5
"2004/12/07",  8.0,  8.8,  7.1
"2004/12/08",  7.9,  9.4,  6.5
"2004/12/09",  8.1,  8.4,  7.8
"2004/12/10",  8.7,  9.9,  8.0
"2004/12/11",  8.6, 10.0,  7.5
"2004/12/12",  8.0,  8.6,  7.8
"2004/12/13",  8.3,  9.6,  7.2
"2004/12/14",  7.9,  8.5,  7.3
"2004/12/15",  7.8,  8.4,  7.2
"2004/12/16",  8.9, 10.2,  8.0
"2004/12/17",  7.7,  8.6,  6.7
"2004/12/18",  7.8,  9.0,  7.0
"2004/12/19",  7.5,  8.4,  6.6
"2004/12/20",  8.0,  8.5,  7.6
"2004/12/21",  7.6,  8.2,  6.7
"2004/12/22",  7.3,  8.0,  6.6
"2004/12/23",  6.4,  7.3,  5.6
"2004/12/24",  5.5,  6.5,  4.3
"2004/12/25",  5.6,  6.8,  4.6
"2004/12/26",  5.1,  6.2,  4.0
"2004/12/27",  5.1,  6.2,  3.8
"2004/12/28",  4.6,  5.7,  3.4
"2004/12/29",  4.5,  5.0,  3.8
"2004/12/30",  3.5,  4.4,  2.7
"2004/12/31",  3.1,  3.4,  2.7
